Regional Weather Roundup
Issued by NWS

Home | Current Version | Previous Version | Text Only | Print | Product List | Glossary Off
Versions: 1 2 3 4 5 6 7 8 9 10 11 12 13 14 15 16 17 18 19 20 21 22 23 24 25 26 27 28 29 30 31 32 33 34 35 36 37 38 39 40 41 42 43 44 45 46 47 48 49 50

000
ASUS44 KMEG 201900
RWRTN
TENNESSEE HOURLY STATE WEATHER ROUNDUP
NATIONAL WEATHER SERVICE MEMPHIS TN
200 PM CDT WED AUG 20 2014

TNZ002-004-019-021-049-052-054-088>092-202000-
WEST TENNESSEE

CITY           SKY/WX    TMP DP  RH WIND       PRES   REMARKS
MEMPHIS INTL   MOSUNNY   94  72  48 SW12      30.04R HX 102
NWS MEMPHIS      N/A     93 N/A N/A MISG        N/A
JACKSON        MOSUNNY   92  74  55 SW8       30.03S HX 101
DYERSBURG      SUNNY     91  72  52 W8        30.02S HX  98
UNION CITY     MOSUNNY   91  79  66 W6        30.00S HX 107
PARIS          SUNNY     90  77  66 SW6       30.02S HX 102
SAVANNAH       MOSUNNY   91  75  59 VRB5      30.04S HX 102
$$

TNZ008-025-027-028-033-062-065-066-202000-
NORTH MIDDLE TENNESSEE

CITY           SKY/WX    TMP DP  RH WIND       PRES   REMARKS
NASHVILLE      PTSUNNY   91  74  57 SW10G20   29.97F THUNDER HX 100
CLARKSVILLE    PTSUNNY   92  72  51 NW7       29.98F HX  99
COOKEVILLE     MOSUNNY   90  79  70 SW7       30.01F HX 105
CROSSVILLE     MOSUNNY   86  72  62 SW9       30.07F HX  92
$$

TNZ061-075-076-078-094-096-097-202000-
SOUTH MIDDLE TENNESSEE

CITY           SKY/WX    TMP DP  RH WIND       PRES   REMARKS
WINCHESTER     MOSUNNY   90  75  62 W7        30.04F HX 100
SHELBYVILLE    SUNNY     93  79  62 SW12      30.01F HX 110
$$

TNZ017-018-042-046-047-202000-
NORTHEAST TENNESSEE

CITY           SKY/WX    TMP DP  RH WIND       PRES   REMARKS
TRI CITIES     MOSUNNY   81  67  62 CALM      30.06F
ELIZABETHTON   CLEAR     81  66  61 CALM      30.06F
$$

TNZ012-013-036-069-073-074-202000-
CENTRAL EAST TENNESSEE

CITY           SKY/WX    TMP DP  RH WIND       PRES   REMARKS
KNOXVILLE      PTSUNNY   84  74  71 SW9       30.02F HX  91
OAK RIDGE      LGT RAIN  84  73  69 W6        30.05R HX  90
GATLINBURG     PTCLDY    91  72  52 W8        30.01F HX  98
$$

TNZ083-085-099-202000-
SOUTHEAST TENNESSEE

CITY           SKY/WX    TMP DP  RH WIND       PRES   REMARKS
CHATTANOOGA    MOSUNNY   93  72  50 W10G18    30.01F HX 101
$$

SKY/WX REPORTED AS FAIR MEANS FEW OR NO CLOUDS BELOW
12 THOUSAND FEET.




USA.gov is the U.S. government's official web portal to all federal, state and local government web resources and services.